Location: Fasanenhof
(48.7107°N, 9.1590°E)
Time: 11:34:48
(UTC+00:00)

ISS - Visible Passes

Search period start: 03 December 2022 00:00
Search period end: 13 December 2022 00:00
Orbit: 414 x 420 km, 51.6° (Epoch: 03 December)

Date Brightness Start Highest point End Pass type
(mag) Time Alt. Az. Time Alt. Az. Time Alt. Az.
03 Dec -3.7 16:51:43 10° WNW 16:55:04 81° SSW 16:57:24 18° ESE visible
03 Dec -0.8 18:29:05 10° W 18:30:21 16° WSW 18:30:21 16° WSW visible
04 Dec -3.8 16:03:35 10° WNW 16:06:56 76° NNE 16:10:17 10° ESE visible
04 Dec -1.8 17:40:36 10° W 17:43:29 27° SW 17:44:44 21° S visible
05 Dec -2.5 16:52:18 10° WNW 16:55:27 40° SSW 16:58:36 10° SE visible
06 Dec -3.1 16:04:03 10° WNW 16:07:21 59° SSW 16:10:39 10° SE visible
06 Dec -0.6 17:42:08 10° WSW 17:43:33 12° SW 17:44:57 10° SSW visible
07 Dec -0.9 16:53:09 10° W 16:55:35 19° SW 16:58:00 10° S visible
08 Dec -1.4 16:04:36 10° W 16:07:32 28° SW 16:10:26 10° SSE visible
10 Dec -0.3 16:05:52 10° WSW 16:07:26 13° SW 16:09:00 10° SSW visible
